Flag for Cameroon Weather past 2 weeks in Bamenda, Cameroon

Now
93 °F

Partly sunny.


Feels Like: 105 °F
Forecast: 55 / 85 °F
Wind: 7 mph from West

Location: Douala Obs.

Current Time: Apr 27, 2015 at 2:57:01 PM

Latest Report: Apr 27, 2015 at 2:00 PM


Visibility: N/A

Pressure: 29.80 "Hg

Humidity: 56%

Dew point: 75 °F

Location of BamendaLocation

Historic Weather in Bamenda — Graph

°F

Bamenda temperature yesterday

Maximum temperature yesterday: 90 °F (at 3:00 PM)
Minimum temperature yesterday: 75 °F (at 4:00 AM)
Average temperature yesterday: 82 °F

Past Weeks' High & Low Weather Summary

 TemperatureHumidityPressure
High93 °F (Apr 19, 1:00 PM)100% (Apr 13, 10:00 PM)30.04 "Hg (Apr 13, 10:00 PM)
Low63 °F (Apr 23, 6:00 AM)56% (Apr 27, 1:00 PM)29.74 "Hg (Apr 14, 4:00 PM)
Average83 °F83%29.85 "Hg
* Reported Apr 12 1:00 PM — Apr 27 1:00 PM, Bamenda, Weather by CustomWeather, © 2015

Note: Actual official high and low records may vary slightly from our data, if they occured in-between our weather recording intervals... More about our weather records

Advertising

Bamenda weather history for previous 24 hours

 ConditionsComfort  
Time TempWeatherWind HumidityBarometerVisibility
1:00 PM
Mon, Apr 27
93 °FPartly sunny.No wind56%29.83 "HgN/A
12:00 PM91 °FPartly sunny.5 mph63%29.86 "HgN/A
11:00 AM90 °FPartly sunny.No wind67%29.89 "HgN/A
10:00 AM88 °FScattered clouds.No wind66%29.92 "HgN/A
9:00 AM84 °FScattered clouds.No wind74%29.89 "Hg4 mi
8:00 AM81 °FFog.No wind89%29.89 "Hg2 mi
7:00 AM75 °FFog.No wind100%29.86 "Hg2 mi
6:00 AM75 °FPassing clouds.No wind100%29.83 "Hg4 mi
5:00 AM75 °FPassing clouds.No wind100%29.83 "Hg5 mi
4:00 AM75 °FPassing clouds.No wind100%29.83 "Hg5 mi
3:00 AM77 °FPassing clouds.No wind94%29.83 "Hg5 mi
2:00 AM77 °FPassing clouds.No wind94%29.86 "Hg5 mi
1:00 AM77 °FPartly cloudy.No wind94%29.86 "Hg4 mi
12:00 AM79 °FPartly cloudy.No wind94%29.86 "Hg4 mi
11:00 PM
Sun, Apr 26
79 °FPartly cloudy.No wind94%29.89 "Hg4 mi
10:00 PM79 °FPartly cloudy.No wind94%29.89 "HgN/A
9:00 PM79 °FPartly cloudy.5 mph94%29.86 "HgN/A
8:00 PM81 °FPartly cloudy.5 mph89%29.86 "HgN/A
7:00 PM84 °FPartly cloudy.No wind79%29.86 "HgN/A
6:00 PM88 °FBroken clouds.5 mph70%29.83 "HgN/A
5:00 PM90 °FBroken clouds.5 mph67%29.80 "HgN/A
4:00 PM90 °FBroken clouds.7 mph59%29.83 "HgN/A
3:00 PM90 °FBroken clouds.7 mph67%29.86 "HgN/A
2:00 PM88 °FBroken clouds.No wind66%29.89 "HgN/A
Weather by CustomWeather, © 2015

See weather overviewHow to use our weather pages